This demonstration page uses our WeatherBlox Daily Observations layout. Learn more.

Left ArrowRight Arrow

Hourly Observations for June 26, 2021

Temp ( °F °C ) Dew Point ( °F °C ) Humidity (%) Winds ( mph kmh ) Pressure ( in mb ) Visibility ( mi km ) Precip ( " mm )
12:53 am 00:53 Clear 67 19.4 63 17.2 87 87 Calm 30.14 1021 10 16 0.00 0.00
1:53 am 01:53 Clear 66 18.9 63 17.2 90 90 Calm 30.14 1021 10 16 0.00 0.00
2:53 am 02:53 Clear 66 18.9 63 17.2 90 90 Calm 30.12 1020 10 16 0.00 0.00
3:53 am 03:53 Clear 64 17.8 62 16.7 93 93 Calm 30.12 1020 10 16 0.00 0.00
4:53 am 04:53 Clear 64 17.8 61 16.1 90 90 NNE 3 6 30.13 1020 10 16 0.00 0.00
5:53 am 05:53 Clear 64 17.8 61 16.1 90 90 Calm 30.14 1021 10 16 0.00 0.00
6:53 am 06:53 Mostly Cloudy 65 18.3 62 16.7 90 90 Calm 30.15 1021 10 16 0.00 0.00
7:53 am 07:53 Cloudy 68 20 63 17.2 84 84 NE 3 6 30.16 1021 10 16 0.00 0.00
8:53 am 08:53 Sunny 74 23.3 62 16.7 67 67 NE 3 6 30.16 1021 10 16 0.00 0.00
9:53 am 09:53 Mostly Cloudy 76 24.4 62 16.7 62 62 ESE 9 15 30.16 1022 10 16 0.00 0.00
10:53 am 10:53 Sunny 79 26.1 64 17.8 60 60 VRB 7 11 30.16 1022 10 16 0.00 0.00
11:53 am 11:53 Mostly Cloudy 81 27.2 65 18.3 58 58 SSE 10 17 30.16 1021 10 16 0.00 0.00
12:53 pm 12:53 Mostly Sunny 83 28.3 65 18.3 55 55 SSE 7 11 30.16 1021 10 16 0.00 0.00
1:53 pm 13:53 Mostly Cloudy 84 28.9 66 18.9 55 55 ESE 9 15 30.15 1021 10 16 0.00 0.00
2:53 pm 14:53 Partly Cloudy 84 28.9 65 18.3 53 53 undefined N/A 30.14 1021 10 16 0.00 0.00
3:53 pm 15:53 Partly Cloudy 86 30 66 18.9 51 51 ESE 10 17 30.11 1020 10 16 0.00 0.00
5:53 pm 17:53 Mostly Cloudy 84 28.9 65 18.3 53 53 SE 9 15 30.09 1019 10 16 0.00 0.00
6:53 pm 18:53 Cloudy 84 28.9 65 18.3 53 53 SE 7 11 30.09 1019 10 16 0.00 0.00
7:53 pm 19:53 Cloudy with Light Rain 75 23.9 71 21.7 88 88 SSE 7 11 30.11 1020 10 16 0.04 1.02
8:53 pm 20:53 Mostly Cloudy 75 23.9 70 21.1 84 84 Calm 30.09 1019 10 16 0.00 0.00
9:53 pm 21:53 Clear 74 23.3 71 21.7 91 91 Calm 30.10 1019 10 16 0.00 0.00
10:53 pm 22:53 Cloudy 74 23.3 71 21.7 91 91 Calm 30.11 1020 10 16 0.00 0.00
11:53 pm 23:53 Partly Cloudy 73 22.8 71 21.7 94 94 Calm 30.11 1020 10 16 0.00 0.00

Powered by AerisWeather